Weather History for New Bedford, MA

Change the Weather History Date:

Thursday, January 17, 2013

  Actual Average Record
Temperature  
Mean Temperature 38 °F -  
Max Temperature 43 °F 35 °F 56 °F (1990)
Min Temperature 32 °F 18 °F -1 °F (1982)
Degree Days  
Heating Degree Days 28    
Moisture  
Dew Point 28 °F    
Average Humidity 73    
Maximum Humidity 93    
Minimum Humidity 51    
Precipitation  
Precipitation 0.00 in - - ()
Sea Level Pressure  
Sea Level Pressure 29.97 in    
Wind  
Wind Speed 6 mph (West)    
Max Wind Speed 13 mph    
Max Gust Speed 17 mph    
Visibility 9 miles    
Events Snow    
Averages and records for this station are not official NWS values.
T = Trace of Precipitation, MM = Missing Value Source: NWS Daily Summary

Daily Weather History Graph

Daily Weather History Graph

Search for Another Location

Airport:

Trip Planner

Search our weather history database for the weather conditions in past years. The results will help you decide how hot, cold, wet, or windy it might be!

Date:

Astronomy

Jan. 17, 2013 Rise Set
Actual Time 7:07 AM EST 4:41 PM EST
Civil Twilight 6:36 AM EST 5:11 PM EST
Nautical Twilight 6:02 AM EST 5:45 PM EST
Astronomical Twilight 5:29 AM EST 6:18 PM EST
Moon 10:06 AM EST (1/17) 11:36 PM EST (1/17)
Length of Visible Light 10h 34m
Length of Day
9h 33m
Waxing Crescent, 37% of the Moon is Illuminated
Jan 17
Waxing Crescent
Jan 18
First Quarter
Jan 26
Full
Feb 3
Last Quarter
Feb 10
New

Hourly Weather History & Observations

Time (EST) Temp. Windchill Dew Point Humidity Pressure Visibility Wind Dir Wind Speed Gust Speed Precip Events Conditions
12:53 AM 36.0 °F 31.1 °F 33.1 °F 89% 29.86 in 9.0 mi WSW 5.8 mph - N/A   Overcast
1:53 AM 35.1 °F 29.3 °F 32.0 °F 89% 29.87 in 10.0 mi West 6.9 mph - N/A   Mostly Cloudy
2:53 AM 35.1 °F 32.2 °F 32.0 °F 89% 29.88 in 8.0 mi West 3.5 mph - N/A   Mostly Cloudy
3:46 AM 33.8 °F 28.6 °F 32.0 °F 93% 29.87 in 8.0 mi WSW 5.8 mph - N/A   Overcast
3:53 AM 34.0 °F 28.0 °F 32.0 °F 92% 29.88 in 9.0 mi WSW 6.9 mph - N/A   Overcast
4:19 AM 33.8 °F 29.6 °F 32.0 °F 93% 29.87 in 8.0 mi SW 4.6 mph - N/A   Scattered Clouds
4:53 AM 33.1 °F 28.7 °F 30.9 °F 92% 29.87 in 8.0 mi WSW 4.6 mph - N/A   Partly Cloudy
5:53 AM 33.1 °F 28.7 °F 30.9 °F 92% 29.88 in 7.0 mi WSW 4.6 mph - N/A   Clear
6:53 AM 32.0 °F 26.4 °F 30.2 °F 93% 29.90 in 7.0 mi West 5.8 mph - N/A   Clear
7:53 AM 34.0 °F 28.0 °F 30.9 °F 89% 29.95 in 8.0 mi WSW 6.9 mph - N/A   Clear
8:53 AM 37.0 °F 31.6 °F 30.9 °F 79% 29.97 in 10.0 mi West 6.9 mph - N/A   Clear
9:53 AM 39.9 °F 32.5 °F 30.0 °F 68% 30.00 in 10.0 mi West 12.7 mph - N/A   Clear
10:53 AM 41.0 °F 35.2 °F 28.9 °F 62% 29.99 in 10.0 mi West 9.2 mph 16.1 mph N/A   Clear
11:53 AM 41.0 °F 34.7 °F 28.0 °F 60% 29.97 in 10.0 mi WNW 10.4 mph 16.1 mph N/A   Clear
12:53 PM 43.0 °F 37.2 °F 28.0 °F 56% 29.98 in 10.0 mi WNW 10.4 mph - N/A   Clear
1:53 PM 43.0 °F 37.2 °F 28.0 °F 56% 29.99 in 10.0 mi West 10.4 mph 17.3 mph N/A   Clear
2:53 PM 43.0 °F 40.3 °F 27.0 °F 53% 30.01 in 10.0 mi Variable 4.6 mph - N/A   Clear
3:53 PM 42.1 °F 38.4 °F 25.0 °F 51% 30.02 in 10.0 mi NW 5.8 mph - N/A   Clear
4:53 PM 39.0 °F 36.8 °F 26.1 °F 60% 30.04 in 10.0 mi West 3.5 mph - N/A   Clear
5:53 PM 39.0 °F - 26.1 °F 60% 30.05 in 10.0 mi Calm Calm - N/A   Clear
6:53 PM 36.0 °F 33.3 °F 28.9 °F 76% 30.06 in 10.0 mi WNW 3.5 mph - N/A   Mostly Cloudy
7:53 PM 37.0 °F - 25.0 °F 62% 30.07 in 10.0 mi Calm Calm - N/A   Mostly Cloudy
8:53 PM 37.0 °F 34.5 °F 24.1 °F 59% 30.06 in 10.0 mi NW 3.5 mph - N/A   Overcast
9:53 PM 36.0 °F 33.3 °F 21.9 °F 57% 30.05 in 10.0 mi NNW 3.5 mph - N/A   Overcast
10:53 PM 35.1 °F 30.1 °F 21.9 °F 59% 30.05 in 7.0 mi Variable 5.8 mph - 0.00 in Snow Light Snow
11:53 PM 33.1 °F 30.0 °F 21.9 °F 64% 30.06 in 9.0 mi NNW 3.5 mph - 0.00 in   Overcast